Satellite-Ground Cal/Val Region Overpasses Predictions

Prediction of Satellite NPP Overpassing Cal/Val Region: PacNW

Region Location: (Latitude: 10.00, Longitude: 139.50) to (Latitude: 22.70, Longitude: 165.60).

Table of predicted overpasses for the next 14.0 days since TLE Epoch: 8/11/2018
Interval Starting Time Starting Location Ending Time Ending Location
1 08/11/2018 14:45:53 ( 22.66, 163.53) 08/11/2018 14:49:28 ( 10.04, 160.52)
2 08/12/2018 03:36:29 ( 10.05, 145.67) 08/12/2018 03:40:04 ( 22.68, 142.66)
3 08/12/2018 14:30:04 ( 11.41, 165.59) 08/12/2018 14:30:27 ( 10.06, 165.28)
4 08/12/2018 16:08:22 ( 22.68, 142.91) 08/12/2018 16:11:57 ( 10.06, 139.91)
5 08/13/2018 03:17:28 ( 10.04, 150.43) 08/13/2018 03:21:03 ( 22.66, 147.42)
6 08/13/2018 15:49:20 ( 22.69, 147.67) 08/13/2018 15:52:56 ( 10.01, 144.66)
7 08/14/2018 02:58:26 ( 10.02, 155.19) 08/14/2018 03:02:01 ( 22.65, 152.18)
8 08/14/2018 15:30:20 ( 22.65, 152.42) 08/14/2018 15:33:55 ( 10.03, 149.41)
9 08/15/2018 02:39:25 ( 10.01, 159.95) 08/15/2018 02:43:01 ( 22.69, 156.93)
10 08/15/2018 15:11:18 ( 22.66, 157.18) 08/15/2018 15:14:53 ( 10.04, 154.17)
11 08/16/2018 02:20:24 ( 10.05, 164.69) 08/16/2018 02:23:59 ( 22.68, 161.69)
12 08/16/2018 14:52:17 ( 22.68, 161.94) 08/16/2018 14:55:53 ( 10.00, 158.92)
13 08/17/2018 03:42:53 ( 10.04, 144.08) 08/17/2018 03:46:28 ( 22.66, 141.07)
14 08/17/2018 14:34:33 ( 18.18, 165.59) 08/17/2018 14:36:52 ( 10.02, 163.68)
15 08/17/2018 16:14:46 ( 22.69, 141.32) 08/17/2018 16:16:54 ( 15.18, 139.50)
16 08/18/2018 03:23:51 ( 10.03, 148.83) 08/18/2018 03:27:26 ( 22.65, 145.83)
17 08/18/2018 15:55:45 ( 22.65, 146.07) 08/18/2018 15:59:20 ( 10.03, 143.06)
18 08/19/2018 03:04:50 ( 10.01, 153.59) 08/19/2018 03:08:26 ( 22.70, 150.57)
19 08/19/2018 15:36:44 ( 22.66, 150.83) 08/19/2018 15:40:19 ( 10.04, 147.82)
20 08/20/2018 02:45:49 ( 10.06, 158.34) 08/20/2018 02:49:24 ( 22.68, 155.33)
21 08/20/2018 15:17:42 ( 22.68, 155.59) 08/20/2018 15:21:18 ( 10.00, 152.57)
22 08/21/2018 02:26:48 ( 10.04, 163.10) 08/21/2018 02:30:23 ( 22.67, 160.09)
23 08/21/2018 14:58:41 ( 22.69, 160.35) 08/21/2018 15:02:17 ( 10.01, 157.33)
24 08/22/2018 02:10:30 ( 19.66, 165.59) 08/22/2018 02:11:21 ( 22.66, 164.85)
25 08/22/2018 03:49:16 ( 10.03, 142.48) 08/22/2018 03:52:49 ( 22.54, 139.51)
26 08/22/2018 14:39:40 ( 22.65, 165.09) 08/22/2018 14:43:15 ( 10.03, 162.09)
27 08/22/2018 16:21:10 ( 22.64, 139.72) 08/22/2018 16:21:24 ( 21.82, 139.51)
28 08/23/2018 03:30:15 ( 10.02, 147.24) 08/23/2018 03:33:50 ( 22.65, 144.24)
29 08/23/2018 16:02:09 ( 22.66, 144.48) 08/23/2018 16:05:44 ( 10.04, 141.47)
30 08/24/2018 03:11:13 ( 10.01, 152.00) 08/24/2018 03:14:49 ( 22.69, 148.98)
31 08/24/2018 15:43:07 ( 22.67, 149.24) 08/24/2018 15:46:42 ( 10.05, 146.23)


NCC Satellite Cal/Val Overpasses Prediction Service
